Frederick, OK

5:31 AM CDT on August 19, 2017 (GMT -0500)
Frederick Municipal

Weather History for KFDR - October, 2012

Change the Weather History Date:

Monday, October 29, 2012

  Actual Average (KLTS) Record (KLTS)
Temperature  
Mean Temperature 53 °F -  
Max Temperature 70 °F 66 °F 89 °F (2003)
Min Temperature 36 °F 45 °F 34 °F (2012)
Degree Days  
Heating Degree Days 12    
Growing Degree Days 3 (Base 50)    
Moisture  
Dew Point 29 °F    
Average Humidity 47    
Maximum Humidity 68    
Minimum Humidity 23    
Precipitation  
Precipitation 0.00 in - - ()
Sea Level Pressure  
Sea Level Pressure 30.16 in    
Wind  
Wind Speed 7 mph (SE)    
Max Wind Speed 14 mph    
Max Gust Speed 20 mph    
Visibility 10 miles    
Events      
Averages and records for this station are not official NWS values.
T = Trace of Precipitation, MM = Missing Value Source: NWS Daily Summary

Daily Weather History Graph

Daily Weather History Graph

Search for Another Location

Airport or City:

Trip Planner

Search our weather history database for the weather conditions in past years. The results will help you decide how hot, cold, wet, or windy it might be!

Date:

Astronomy

Oct. 29, 2012 Rise Set
Actual Time 7:53 AM CDT 6:44 PM CDT
Civil Twilight 7:27 AM CDT 7:10 PM CDT
Nautical Twilight 6:58 AM CDT 7:40 PM CDT
Astronomical Twilight 6:28 AM CDT 8:09 PM CDT
Moon 6:40 PM CDT (10/29) 7:44 AM CDT (10/29)
Length of Visible Light 11h 42m
Length of Day
10h 51m
Full, 100% of the Moon is Illuminated
Oct 29
Full
Oct 29
Full
Nov 6
Last Quarter
Nov 13
New
Nov 20
First Quarter

Hourly Weather History & Observations

Time (CDT) Temp. Windchill Dew Point Humidity Pressure Visibility Wind Dir Wind Speed Gust Speed Precip Events Conditions
12:53 AM 43.0 °F 38.2 °F 28.0 °F 56% 30.21 in 10.0 mi ESE 8.1 mph - N/A   Clear
1:53 AM 41.0 °F 36.4 °F 28.0 °F 60% 30.21 in 10.0 mi ESE 6.9 mph - N/A   Clear
2:53 AM 41.0 °F 36.4 °F 28.0 °F 60% 30.21 in 10.0 mi ESE 6.9 mph - N/A   Clear
3:53 AM 39.0 °F 35.7 °F 27.0 °F 62% 30.20 in 10.0 mi East 4.6 mph - N/A   Clear
4:53 AM 37.0 °F 33.3 °F 27.0 °F 67% 30.21 in 10.0 mi ENE 4.6 mph - N/A   Clear
5:53 AM 36.0 °F - 26.1 °F 67% 30.22 in 10.0 mi Calm Calm - N/A   Clear
6:53 AM 37.0 °F 33.3 °F 27.0 °F 67% 30.22 in 10.0 mi ESE 4.6 mph - N/A   Clear
7:53 AM 37.9 °F - 28.0 °F 68% 30.23 in 10.0 mi Calm Calm - N/A   Clear
8:53 AM 42.1 °F 40.2 °F 30.0 °F 62% 30.25 in 10.0 mi East 3.5 mph - N/A   Clear
9:53 AM 50.0 °F - 30.9 °F 48% 30.25 in 10.0 mi SSE 5.8 mph - N/A   Clear
10:53 AM 57.0 °F - 30.0 °F 36% 30.24 in 10.0 mi South 10.4 mph - N/A   Clear
11:53 AM 61.0 °F - 30.0 °F 31% 30.22 in 10.0 mi South 10.4 mph - N/A   Clear
12:53 PM 64.0 °F - 28.9 °F 27% 30.19 in 10.0 mi South 11.5 mph - N/A   Clear
1:53 PM 66.0 °F - 28.9 °F 25% 30.15 in 10.0 mi South 10.4 mph 19.6 mph N/A   Clear
3:53 PM 70.0 °F - 30.0 °F 23% 30.09 in 10.0 mi South 13.8 mph 17.3 mph N/A   Clear
4:53 PM 69.1 °F - 30.9 °F 24% 30.08 in 10.0 mi SSE 10.4 mph - N/A   Clear
5:53 PM 68.0 °F - 30.0 °F 24% 30.06 in 10.0 mi SSE 10.4 mph - N/A   Clear
6:53 PM 60.1 °F - 30.0 °F 32% 30.07 in 10.0 mi SSE 8.1 mph - N/A   Clear
7:53 PM 55.0 °F - 30.0 °F 38% 30.08 in 10.0 mi SE 9.2 mph - N/A   Clear
8:53 PM 52.0 °F - 30.9 °F 45% 30.08 in 10.0 mi SE 8.1 mph - N/A   Clear
9:53 PM 51.1 °F - 30.9 °F 46% 30.08 in 10.0 mi SE 9.2 mph - N/A   Clear
10:53 PM 48.9 °F - 30.9 °F 50% 30.07 in 10.0 mi SE 9.2 mph - N/A   Clear
11:53 PM 48.0 °F - 30.9 °F 52% 30.06 in 10.0 mi SE 8.1 mph - N/A   Clear